Voltar ao catálogo

CZ-6A DEB

AtivoSSO
NORAD 56666·DEBRIS·🇨🇳 China

Lançado Nov 11, 2022 de Taiyuan Satellite Launch Center

Loading…

Próximas Passagens (próximas 24 horas)

TLE

EnvelhecendoSource: Space-Track

Época: Sep 9, 2026, 23:03 UTC

1 56666U 22151AGS 26252.96042940  .00000971  00000-0  28463-3 0  9994
2 56666  98.7243 315.7291 0074699  31.9398 328.6288 14.44626400177632

Acompanhe CZ-6A DEB em tempo real com AllMySat

Download on the App Store